Location: Kuffner-Sternwarte
(48.2130°N, 16.2960°E)
Time: 02:49:46
(UTC+02:00)

COROT - Pass Details

Date: 13 August 2018
Orbit: 599 x 890 km, 90.0° (Epoch: 20 August)

Event Time Altitude Azimuth Distance (km) Brightness Sun altitude
Rises 04:11:36 0° 167° (SSE) 3,249 9.0 -14.0°
Reaches altitude 10° 04:14:01 10° 165° (SSE) 2,280 8.2 -13.7°
Maximum altitude 04:19:00 63° 85° (E) 794 6.3 -13.1°
Drops below altitude 10° 04:23:37 10° 4° (N) 2,115 8.9 -12.5°
Sets 04:25:48 0° 2° (N) 2,995 9.7 -12.2°
